AirNav   Everest Fuels
 
 622 users online  

MN15 Smith Field Airport
Elko, Minnesota, USA

GOING TO ELKO?


FAA INFORMATION EFFECTIVE 01 DECEMBER 2022

Location

FAA Identifier: MN15
Lat/Long: 44-37-24.0200N 093-24-07.3900W
44-37.400333N 093-24.123167W
44.6233389,-93.4020528
(estimated)
Elevation: 958 ft. / 292 m (estimated)
From city: 5 miles N of ELKO, MN
Time zone: UTC -6 (UTC -5 during Daylight Saving Time)
Zip code: 55372

Airport Operations

Airport use: Private use. Permission required prior to landing
Activation date: 10/2014
Control tower: no
ARTCC: MINNEAPOLIS CENTER
FSS: PRINCETON FLIGHT SERVICE STATION
Attendance: UNATTND
Segmented circle: no

Airport Communications

WX AWOS-3 at LVN (7 nm E): 118.0 (952-469-5850)
WX ASOS at FCM (12 nm N): PHONE 952-941-4156
WX ASOS at MSP (17 nm NE): PHONE 612-713-4174
WX AWOS-3 at FBL (18 nm S): 120.2 (507-332-2505)
WX AWOS-3 at SYN (19 nm SE): 119.35 (507-664-3806)

Nearby radio navigation aids

VOR radial/distance  VOR name  Freq  Var
FGTr261/9.4FARMINGTON VORTAC115.7006E
FCMr171/12.2FLYING CLOUD VOR/DME117.7001E
MSPr201/17.8MINNEAPOLIS VOR/DME115.3002E
FOWr355/25.2HALFWAY VOR/DME111.2002E
GEPr176/31.4GOPHER VORTAC117.3006E
MKTr035/32.6MANKATO VOR/DME110.8007E

Airport Services

Runway Information

Runway 9/27

Dimensions: 1383 x 75 ft. / 422 x 23 m
Surface: turf
RUNWAY 9  RUNWAY 27
Traffic pattern: leftleft

Airport Ownership and Management from official FAA records

Ownership: Privately-owned
Owner: JEFF SMITH
5756 230TH ST
ELKO, MN 56020
Phone 612-685-4620
Manager: JEFF SMITH
5756 230TH ST
ELKO, MN 56020
Phone 612-685-4620

Additional Remarks

DO NOT CHART PER MINNESOTA DEPARTMENT OF TRANSPORTATION
FOR CD CTC MINNEAPOLIS ARTCC AT 651-463-5588.

Instrument Procedures

There are no published instrument procedures at MN15.

Some nearby airports with instrument procedures:

KLVN - Airlake Airport (7 nm E)
KFCM - Flying Cloud Airport (12 nm N)
KMSP - Minneapolis-St Paul International/Wold-Chamberlain Airport (17 nm NE)
KFBL - Faribault Municipal Airport-Liz Wall Strohfus Field (18 nm S)
KSGS - South St Paul Municipal Airport/Richard E Fleming Field (21 nm NE)
 
Loc | Ops | Rwys | IFR | FBO | Links
Com | Nav | Svcs | Stats | Notes
Aerial photo
No photo
 
Airport distance calculator
Flying to Smith Field Airport? Find the distance to fly.

From to MN15

Sunrise and sunset
Times for 04-Dec-2022
 Local
(UTC-6)
 Zulu
(UTC)
Morning civil twilight07:0213:02
Sunrise07:3513:35
Sunset16:3322:33
Evening civil twilight17:0623:06

Current date and time
Zulu (UTC)  04-Dec-2022 11:24:22
Local (UTC-6)  04-Dec-2022 05:24:22
 
METAR
KLVN 
8nm E 
041055Z AUTO 24004KT 10SM CLR M09/M13 A3013 RMK AO2
KFCM 
13nm N 
041053Z AUTO 23004KT 10SM CLR M12/M14 A3012 RMK AO2 SLP220 T11171144
KMSP 
17nm NE 
041053Z 00000KT 10SM CLR M12/M14 A3013 RMK AO2 SLP223 T11171144 $
KSGS 
17nm NE 
041055Z AUTO 00000KT 10SM CLR M13/M16 A3014 RMK AO2 T11321156
KSYN 
19nm SE 
041055Z AUTO 20006KT 10SM CLR M10/M13 A3014 RMK AO2 T10981128
KFBL 
19nm S 
041055Z AUTO 18006KT 10SM CLR M12/M13 A3013 RMK AO2
TAF
KMSP 
17nm NE 
040520Z 0406/0512 18004KT P6SM SKC FM040900 23008KT P6SM SKC FM041800 24010KT P6SM SKC
NOTAMs
Click for the latest NOTAMs
NOTAMs are issued by the DoD/FAA and will open in a separate window not controlled by AirNav.

 

 
 

Would you like to see your business listed on this page?

 If your business provides an interesting product or service to pilots, flight crews, aircraft, or users of the Smith Field Airport, you should consider listing it here.  To start the listing process, click on the button below
 
Add a business
 

Other Pages about Smith Field Airport

Update a link
 
Copyright © AirNav, LLC. All rights reserved. Privacy Policy  Contact